Weather in Ponte de Lima

Portugal     41°46′03″N   8°34′38″W
temp.,
°C
wind,
m/s
gust,
m/s
humid.,
%
clouds,
%
prec.,
mm/h
press.,
hPa
HPBL,
m
14 may, fri
fri1401:00+8n11974 0.3 102014
04:00+7ne11972 0.0 101914
07:00+7ene119656 0.0 102120
10:00+14s1170100 0.0 1021567
13:00+17sw2354100 0.0 10201073
16:00+17sw3358100 0.0 1019975
19:00+15sw2377100 0.0 1019567
22:00+13sse2290100 0.0 1020110
15 may, sat
sat1501:00+12sse2393100 0.0 1018144
04:00+13sse2496100 0.1 1017271
07:00+13sse2699100 0.5 1017499
10:00+13sse2699100 0.3 1017564
13:00+15s2899100 1.0 1017717
16:00+15ssw3698100 0.6 1017602
19:00+15ssw2598100 1.3 1016425
22:00+14s24100100 0.4 1017284
16 may, sun
sun1601:00+14ssw25100100 1.4 1016344
04:00+14ssw25100100 1.1 1015582
07:00+14sw1310098 1.8 1016226
10:00+17w248350 0.6 1017870
13:00+19w355223 0.7 10181344
16:00+19wnw455046 0.0 10181319
19:00+16wnw236389 0.0 1018857
22:00+11n118899 0.0 102010
17 may, mon
mon1701:00+12nw0081100 0.0 102021
04:00+12n1182100 0.0 101925
07:00+12e008499 0.0 102051
10:00+13n128185 0.0 1021431
13:00+18wnw22507 0.1 10211679
16:00+19nw544057 0.0 10211510
19:00+15nw34535 0.0 1022624
22:00+9n227712 0.0 102431
18 may, tue
tue1801:00+7nne2287100 0.0 102430
04:00+8ne2283100 0.0 102418
07:00+8nne2280100 0.0 102530
10:00+16nw1253100 0.0 1025613
13:00+20nw223568 0.0 10241269
16:00+21nw44377 0.0 10241353
19:00+18nw235498 0.0 1024288
22:00+11n22677 0.0 102632